• En Estados Unidos
  • Lista de países
  • Para 7 días
  • Temperatura del agua
  • Mapa Satelital
  • El tiempo en el mapa
  • Informadores
  • user-avatar
    Iniciar sesión

    Tiempo cada hora Canillo

    Hoy, 17 Enero, Miércoles

    Tiempo Temperatura Precipitaciones Viento Presión Humedad
    00:00 -2°C° 0 mm 4 mps 616 mmHg 82%
    01:00 -2°C° 0,1 mm 4 mps 616 mmHg 84%
    02:00 -2°C° 0,1 mm 4 mps 616 mmHg 86%
    03:00 -2°C° 0,1 mm 4 mps 616 mmHg 87%
    04:00 -2°C° 0,1 mm 4 mps 616 mmHg 86%
    05:00 -3°C° 0,1 mm 4 mps 616 mmHg 85%
    06:00 -3°C° 0 mm 4 mps 617 mmHg 85%
    07:00 -3°C° 0,1 mm 4 mps 617 mmHg 82%
    08:00 -2°C° 0,1 mm 4 mps 618 mmHg 79%
    09:00 -2°C° 0,1 mm 4 mps 618 mmHg 76%
    10:00 -2°C° 0 mm 5 mps 619 mmHg 73%
    11:00 -1°C° 0 mm 5 mps 619 mmHg 70%
    12:00 0°C° 0 mm 5 mps 620 mmHg 67%
    13:00 0°C° 0 mm 5 mps 620 mmHg 66%
    14:00 -1°C° 0 mm 4 mps 620 mmHg 66%
    15:00 -1°C° 0 mm 4 mps 620 mmHg 65%
    16:00 -2°C° 0 mm 4 mps 620 mmHg 69%
    17:00 -4°C° 0 mm 3 mps 620 mmHg 74%
    18:00 -5°C° 0 mm 3 mps 620 mmHg 78%
    19:00 -5°C° 0 mm 3 mps 620 mmHg 78%
    20:00 -6°C° 0 mm 3 mps 620 mmHg 78%
    21:00 -5°C° 0 mm 2 mps 620 mmHg 78%
    22:00 -5°C° 0 mm 2 mps 620 mmHg 78%
    23:00 -5°C° 0 mm 2 mps 620 mmHg 77%

    Mañana, 18 Enero, Jueves

    Tiempo Temperatura Precipitaciones Viento Presión Humedad
    00:00 -5°C° 0 mm 2 mps 620 mmHg 76%
    01:00 -5°C° 0 mm 2 mps 620 mmHg 75%
    02:00 -3°C° 0 mm 1 mps 620 mmHg 74%
    03:00 -3°C° 0 mm 1 mps 620 mmHg 72%
    04:00 -3°C° 0 mm 1 mps 620 mmHg 72%
    05:00 -3°C° 0 mm 1 mps 620 mmHg 71%
    06:00 -3°C° 0 mm 1 mps 620 mmHg 71%
    07:00 -2°C° 0 mm 1 mps 620 mmHg 69%
    08:00 -1°C° 0 mm 1 mps 621 mmHg 68%
    09:00 0°C° 0 mm 1 mps 621 mmHg 66%
    10:00 +2°C° 0 mm 1 mps 621 mmHg 65%
    11:00 +3°C° 0 mm 1 mps 622 mmHg 63%
    12:00 +5°C° 0 mm 1 mps 622 mmHg 62%
    13:00 +5°C° 0 mm 1 mps 621 mmHg 63%
    14:00 +5°C° 0 mm 1 mps 621 mmHg 65%
    15:00 +5°C° 0 mm 1 mps 620 mmHg 66%
    16:00 +3°C° 0 mm 1 mps 620 mmHg 71%
    17:00 +1°C° 0 mm 1 mps 619 mmHg 76%
    18:00 0°C° 0 mm 1 mps 618 mmHg 81%
    19:00 -3°C° 0 mm 2 mps 618 mmHg 79%
    20:00 -3°C° 0 mm 2 mps 618 mmHg 77%
    21:00 -3°C° 0 mm 2 mps 618 mmHg 75%
    22:00 -3°C° 0 mm 2 mps 618 mmHg 75%
    23:00 -3°C° 0 mm 2 mps 618 mmHg 75%

    Pasado mañana, 19 Enero, Viernes

    Tiempo Temperatura Precipitaciones Viento Presión Humedad
    00:00 -3°C° 0 mm 2 mps 618 mmHg 75%
    01:00 -3°C° 0 mm 2 mps 617 mmHg 77%
    02:00 -3°C° 0 mm 2 mps 617 mmHg 79%
    03:00 -2°C° 0 mm 2 mps 617 mmHg 81%
    04:00 -2°C° 0 mm 2 mps 617 mmHg 81%
    05:00 -2°C° 0 mm 2 mps 617 mmHg 81%
    06:00 -2°C° 0 mm 2 mps 617 mmHg 81%
    07:00 -1°C° 0 mm 2 mps 617 mmHg 81%
    08:00 +1°C° 0 mm 2 mps 618 mmHg 80%
    09:00 +1°C° 0 mm 2 mps 618 mmHg 80%
    10:00 +2°C° 0 mm 2 mps 618 mmHg 76%
    11:00 +3°C° 0 mm 2 mps 619 mmHg 73%
    12:00 +3°C° 0 mm 3 mps 619 mmHg 70%
    13:00 +3°C° 0 mm 3 mps 619 mmHg 69%
    14:00 +2°C° 0 mm 3 mps 619 mmHg 68%
    15:00 +2°C° 0 mm 3 mps 618 mmHg 67%
    16:00 0°C° 0 mm 3 mps 618 mmHg 71%
    17:00 -1°C° 0 mm 3 mps 618 mmHg 75%
    18:00 -4°C° 0 mm 3 mps 617 mmHg 79%
    19:00 -4°C° 0 mm 3 mps 618 mmHg 77%
    20:00 -4°C° 0 mm 3 mps 618 mmHg 75%
    21:00 -5°C° 0 mm 3 mps 618 mmHg 72%
    22:00 -5°C° 0 mm 3 mps 618 mmHg 75%
    23:00 -5°C° 0 mm 3 mps 619 mmHg 77%

    20 Enero, Sábado

    Tiempo Temperatura Precipitaciones Viento Presión Humedad
    00:00 -5°C° 0 mm 3 mps 619 mmHg 80%
    01:00 -5°C° 0 mm 3 mps 619 mmHg 80%
    02:00 -5°C° 0 mm 3 mps 618 mmHg 80%
    03:00 -4°C° 0 mm 2 mps 618 mmHg 81%
    04:00 -4°C° 0 mm 2 mps 618 mmHg 80%
    05:00 -4°C° 0 mm 2 mps 618 mmHg 79%
    06:00 -4°C° 0 mm 2 mps 618 mmHg 78%
    07:00 -4°C° 0 mm 2 mps 618 mmHg 76%
    08:00 -3°C° 0 mm 2 mps 619 mmHg 73%
    09:00 -2°C° 0 mm 2 mps 619 mmHg 71%
    10:00 +1°C° 0 mm 2 mps 619 mmHg 67%
    11:00 +2°C° 0 mm 2 mps 619 mmHg 62%
    12:00 +3°C° 0 mm 3 mps 620 mmHg 58%
    13:00 +2°C° 0,5 mm 3 mps 619 mmHg 64%
    14:00 +2°C° 0,5 mm 3 mps 618 mmHg 69%
    15:00 +1°C° 0,5 mm 3 mps 617 mmHg 75%
    16:00 0°C° 0,7 mm 4 mps 617 mmHg 79%
    17:00 0°C° 0,7 mm 4 mps 616 mmHg 83%
    18:00 -1°C° 0,7 mm 5 mps 616 mmHg 87%
    19:00 0°C° 0,5 mm 5 mps 617 mmHg 89%
    20:00 0°C° 0,5 mm 5 mps 617 mmHg 90%
    21:00 0°C° 0,5 mm 5 mps 617 mmHg 91%
    22:00 0°C° 0,4 mm 4 mps 618 mmHg 91%
    23:00 0°C° 0,4 mm 4 mps 618 mmHg 91%

    21 Enero, Domingo

    Tiempo Temperatura Precipitaciones Viento Presión Humedad
    00:00 0°C° 0,4 mm 4 mps 618 mmHg 91%
    01:00 0°C° 0,7 mm 4 mps 618 mmHg 91%
    02:00 0°C° 0,7 mm 4 mps 619 mmHg 92%
    03:00 0°C° 0,7 mm 4 mps 619 mmHg 92%
    04:00 0°C° 0,5 mm 4 mps 620 mmHg 92%
    05:00 +1°C° 0,5 mm 3 mps 620 mmHg 92%
    06:00 +1°C° 0,5 mm 3 mps 620 mmHg 91%
    07:00 +2°C° 0,4 mm 3 mps 621 mmHg 90%
    08:00 +2°C° 0,4 mm 3 mps 621 mmHg 90%
    09:00 +2°C° 0,4 mm 3 mps 622 mmHg 89%
    10:00 +3°C° 0,1 mm 3 mps 623 mmHg 85%
    11:00 +3°C° 0,1 mm 3 mps 623 mmHg 82%
    12:00 +4°C° 0,1 mm 3 mps 623 mmHg 78%
    13:00 +4°C° 0 mm 3 mps 624 mmHg 77%
    14:00 +4°C° 0 mm 3 mps 624 mmHg 76%
    15:00 +4°C° 0 mm 3 mps 624 mmHg 75%
    16:00 +3°C° 0 mm 3 mps 623 mmHg 77%
    17:00 +2°C° 0 mm 3 mps 623 mmHg 80%
    18:00 +1°C° 0 mm 3 mps 623 mmHg 82%
    19:00 0°C° 0 mm 3 mps 623 mmHg 83%
    20:00 0°C° 0 mm 3 mps 623 mmHg 83%
    21:00 +1°C° 0 mm 2 mps 623 mmHg 84%
    22:00 -1°C° 0 mm 2 mps 623 mmHg 84%
    23:00 -1°C° 0 mm 2 mps 623 mmHg 83%

    22 Enero, Lunes

    Tiempo Temperatura Precipitaciones Viento Presión Humedad
    00:00 -1°C° 0 mm 2 mps 623 mmHg 83%
    01:00 -1°C° 0 mm 2 mps 623 mmHg 83%
    02:00 -1°C° 0 mm 2 mps 623 mmHg 82%
    03:00 -1°C° 0 mm 2 mps 623 mmHg 81%
    04:00 -1°C° 0 mm 2 mps 623 mmHg 81%
    05:00 -1°C° 0 mm 2 mps 623 mmHg 80%
    06:00 -1°C° 0 mm 2 mps 623 mmHg 80%
    07:00 +1°C° 0 mm 2 mps 623 mmHg 78%
    08:00 +1°C° 0 mm 2 mps 624 mmHg 77%
    09:00 +2°C° 0 mm 2 mps 625 mmHg 75%
    10:00 +4°C° 0 mm 2 mps 625 mmHg 72%
    11:00 +5°C° 0 mm 2 mps 625 mmHg 69%
    12:00 +6°C° 0 mm 2 mps 626 mmHg 67%
    13:00 +6°C° 0 mm 2 mps 625 mmHg 68%
    14:00 +6°C° 0 mm 2 mps 625 mmHg 69%
    15:00 +6°C° 0 mm 2 mps 625 mmHg 71%
    16:00 +4°C° 0 mm 2 mps 624 mmHg 76%
    17:00 +2°C° 0 mm 2 mps 624 mmHg 81%
    18:00 +1°C° 0 mm 2 mps 623 mmHg 87%
    19:00 -1°C° 0 mm 2 mps 623 mmHg 83%
    20:00 -1°C° 0 mm 2 mps 623 mmHg 80%
    21:00 -1°C° 0 mm 2 mps 623 mmHg 76%
    22:00 -1°C° 0 mm 2 mps 623 mmHg 74%
    23:00 -1°C° 0 mm 2 mps 623 mmHg 71%
    Mostrar más